Location: Buenos Aires
(34.6076°S, 58.4371°W)
Time: 09:20:47
(UTC+00:00)

ISS - Pass Details

Date: 26 November 2023
Orbit: 416 x 417 km, 51.6° (Epoch: 01 December)

Event Time Altitude Azimuth Distance (km) Brightness Sun altitude
Exits shadow 07:51:43 - 255° (WSW) 2,103 -0.6 -8.6°
Reaches altitude 10° 07:54:15 10° 224° (SW) 1,523 -1.0 -8.2°
Maximum altitude 07:55:23 11° 205° (SSW) 1,447 -0.9 -8.0°
Drops below altitude 10° 07:56:32 10° 185° (S) 1,525 -0.5 -7.8°
Sets 07:59:58 0° 149° (SSE) 2,395 1.4 -7.2°
